Location: Aufkirchen
(47.9603°N, 11.3653°E)
Time: 07:04:34
(UTC+01:00)

Transit 2A - Pass Details

Date: 01 December 2020
Orbit: 599 x 960 km, 66.7° (Epoch: 25 January)

Event Time Altitude Azimuth Distance (km) Brightness Sun altitude
Rises 18:42:07 0° 249° (WSW) 3,613 10.9 -22.4°
Reaches altitude 10° 18:45:03 10° 259° (W) 2,645 9.9 -22.9°
Maximum altitude 18:50:28 31° 320° (NW) 1,528 7.8 -23.8°
Enters shadow 18:54:03 17° 11° (NNE) 2,044 8.0 -24.4°
Drops below altitude 10° 18:55:35 10° 22° (NNE) 2,484 - -24.6°
Sets 18:58:15 0° 33° (NNE) 3,362 - -25.1°
